Regional Weather Roundup
Issued by NWS

Home | Current Version | Previous Version | Text Only | Print | Product List | Glossary On
Versions: 1 2 3 4 5 6 7 8 9 10 11 12 13 14 15 16 17 18 19 20 21 22 23 24 25 26 27 28 29 30 31 32 33 34 35 36 37 38 39 40 41 42 43 44 45 46 47 48 49 50
000
ASUS43 KOAX 250710
RWRNE

WEATHER ROUNDUP FOR NEBRASKA
NATIONAL WEATHER SERVICE OMAHA NE
200 AM CDT SAT MAR 25 2017

NOTES: SATELLITE DATA IS BEING USED TO AUGMENT CLOUD COVER ABOVE
       12000 FEET.
       "FAIR" INDICATES FEW OR NO CLOUDS BELOW 12,000 FEET WITH NO
       SIGNIFICANT WEATHER AND/OR OBSTRUCTIONS TO VISIBILITY.

  * THESE STATIONS DO NOT REPORT WEATHER SUCH AS RAIN...SNOW OR FOG.

NEZ001>004-019>022-054>056-250800-
NEBRASKA PANHANDLE

CITY           SKY/WX    TMP DP  RH WIND       PRES   REMARKS
SCOTTSBLUFF    CLOUDY    32  25  75 E6        30.09F WCI  26
ALLIANCE       CLEAR     28  24  85 CALM      30.08F
CHADRON        CLEAR     38  29  70 W3        30.05F
KIMBALL        CLEAR     31  29  92 SW6       30.10F WCI  25
SIDNEY         CLOUDY    26  24  92 W6        30.10F WCI  19
$$

NEZ057>060-069>072-079>082-250800-
SOUTHWEST NEBRASKA

CITY           SKY/WX    TMP DP  RH WIND       PRES   REMARKS
NORTH PLATTE   PTCLDY    35  30  82 NW3       30.07R
IMPERIAL       CLEAR     35  30  82 N8        30.08S WCI  29
LEXINGTON      CLOUDY    41  37  86 N6        30.04S
MCCOOK         CLOUDY    40  39  97 NW6       30.05S
OGALLALA       CLEAR     37  30  75 CALM      30.08F
$$

NEZ005>010-023>029-035>040-094-250800-
NORTH CENTRAL NEBRASKA

CITY           SKY/WX    TMP DP  RH WIND       PRES   REMARKS
VALENTINE      CLOUDY    29  25  85 CALM      30.10F
AINSWORTH      CLEAR     31  29  94 NW9       30.09F WCI  23
BROKEN BOW     PTCLDY    38  35  89 N12       30.04R WCI  30
O`NEILL        CLOUDY    37  36  96 N12       30.07F WCI  30
ORD            CLOUDY    39  36  89 NE14      30.04R WCI  31
THEDFORD       CLEAR     31  29  90 NW6       30.09F WCI  26
$$

NEZ041-046>049-061>064-073>077-083>087-250800-
SOUTH CENTRAL NEBRASKA

CITY           SKY/WX    TMP DP  RH WIND       PRES   REMARKS
GRAND ISLAND   CLOUDY    39  39 100 N15       30.01R FOG     WCI  31
AURORA         CLOUDY    39  38  96 N16G29    29.98F FOG     WCI  30
HASTINGS       LGT RAIN  39  38  96 N17       29.99F FOG     WCI  30
HEBRON         CLOUDY    41  38  88 N12G17    29.95R
HOLDREGE       CLOUDY    40  38  91 N13       30.02R WCI  33
KEARNEY *      CLOUDY    39  36  87 N14G20    30.02S WCI  31
YORK           CLOUDY    39  39 100 N23       29.96F FOG     WCI  29
$$

NEZ011>018-030>034-042>045-250800-
NORTHEAST NEBRASKA

CITY           SKY/WX    TMP DP  RH WIND       PRES   REMARKS
NORFOLK        CLOUDY    37  36  96 N18       30.03S FOG     WCI  27
ALBION         CLOUDY    38  37  92 N14G21    30.04R FOG     WCI  30
BLAIR          CLOUDY    41  40  95 N17G23    29.94F FOG
FREMONT        CLOUDY    42  40  96 N9G21     29.98F
TEKAMAH        CLOUDY    42  39  89 NE18      29.98F
WAYNE          CLOUDY    38  37  99 N14       30.04F FOG     WCI  29
$$

NEZ050>053-065>068-078-088>093-250800-
SOUTHEAST NEBRASKA

CITY           SKY/WX    TMP DP  RH WIND       PRES   REMARKS
LINCOLN        CLOUDY    42  40  92 N20G28    29.95F
OMAHA EPPLEY   CLOUDY    42  37  82 N16G24    29.95S
BEATRICE       CLOUDY    42  40  93 N13       29.90F
FALLS CITY     CLOUDY    45  42  89 N13G22    29.84F
NEBRASKA CITY  CLOUDY    41  41 100 N14G20    29.89F
PLATTSMOUTH    CLOUDY    41  38  88 N15G21    29.91F
$$

NEZ044-045-051>053-067-250800-
OMAHA AREA

CITY           SKY/WX    TMP DP  RH WIND       PRES   REMARKS
OMAHA EPPLEY   CLOUDY    42  37  82 N16G24    29.95S
BLAIR          CLOUDY    41  40  95 N17G23    29.94F FOG
FREMONT        CLOUDY    42  40  96 N9G21     29.98F
MILLARD        CLOUDY    43  41  94 N8        29.95F
OFFUTT AFB     CLOUDY    42  38  88 N14G22    29.92F
PLATTSMOUTH    CLOUDY    41  38  88 N15G21    29.91F
WAHOO          CLOUDY    41  39  92 N21G28    29.96F
$$




USA.gov is the U.S. government's official web portal to all federal, state and local government web resources and services.